CZ-6A DEB

Satellite information

Favourite Embed

Satellite Type and Status

DEBRISDECAYED

Key statistics

Satellite CZ-6A DEB at a glance.

Uptime

1077

Days in orbit

Revolutions

≈ 15.6

Per day

Orbit

SSO

Sun Synchronous Orbit

Inclination

98.8

Latest

Satellite identification and parameters

Extended collection of information and parameters for CZ-6A DEB.

Object identification

Identified? True

Debris? True

Object name: CZ-6A DEB

International designator: 2022-151AAC

Object number (NORAD): 55880

Object ID (CCSDS): 55880

Country: PEOPLES REPUBLIC OF CHINA (PRC)

Current information (Y/N): Y

RCS size: SMALL

Orbital parameters

Decay date: Oct. 23, 2025

Period: 92.513 minutes

Inclination: 98.7736 deg

SMA: 6775.8 km

Apoapsis: 413.892 km

Periapsis: 381.438 km

RAAN: 36.7567 deg

Eccentricy: 0.0023948

Argument of periapsis: 245.9954 deg

Mean anomaly: 113.879 deg

Mean motion: 15.56545828 rev/day

Mean motion (dot): 0.01191548 rev/day2

B* drag term: 0.014972 1/REarth

Two-line elements (TLE)

Creation date: Oct. 24, 2025, 10:46 a.m.

Reference frame: TEME

Reference center: EARTH

Epoch: Oct. 13, 2025, 5:57 a.m. UTC

TLE line 0: 0 CZ-6A DEB

TLE line 1: 1 55880U 22151AAC 25286.24851679 .01191548 00000-0 14972-1 0 9995

TLE line 2: 2 55880 98.7736 36.7567 0023948 245.9954 113.8790 15.56545828144250

Live tracking on map

Satellite CZ-6A DEB has decayed and is no longer in orbit. No tracking available.

In-orbit conjunctions

Satellite CZ-6A DEB has decayed and is no longer in orbit. No conjunctions available.

Associated space launch

Chinese satellite reported for atmospheric/ocean/environmental/spatial parameter research purposes, details TBD.

CZ-6A DEB was lifted into orbit during the mission ‘Long March 6A | Yunhai 3’, on board a Long March 6A space rocket.

The launch took place on Nov. 11, 2022, 10:52 p.m. from Launch Complex 9A.

For more information about the launch, click the button.

Launch to space Long March 6A | Yunhai 3
Long March 6A | Yunhai 3

Agency: N/A

Status: Launch Successful

Launch date: Nov. 11, 2022, 10:52 p.m. UTC

Rocket: Long March 6A

Launch pad: Launch Complex 9A

Location: Taiyuan Satellite Launch Center, People's Republic of China

...

Latest news about this satellite

There are no fresh news available about this satellite. Check back as we update our databases every day.


Newsletter sign-up

Weekly statistics, charts and insights to help you stay on top of the space industry.